When you browse on this site, cookies collect data to enhance your experience and personalize the content and advertising you see.
Visit our Privacy Policy to learn more. By continuing to use the site, you agree to this use of cookies and data.
  • en France
  • Liste des pays
  • À 7 jours
  • Température de l'eau
  • Carte satellitaire
  • Carte météo
  • Widgets météo
  • user-avatar
    Se connecter

    Météo par heure à Ershovo

    Ce jour, 19 Novembre, Lundi

    Heure Température Précipitation Vent Pression Humidité
    00:00 +1°C° 0 mm 4 m/s 770 mmHg 80%
    01:00 0°C° 0 mm 4 m/s 770 mmHg 81%
    02:00 +1°C° 0 mm 3 m/s 771 mmHg 83%
    03:00 +1°C° 0 mm 3 m/s 771 mmHg 84%
    04:00 0°C° 0 mm 3 m/s 771 mmHg 85%
    05:00 0°C° 0 mm 3 m/s 772 mmHg 86%
    06:00 0°C° 0 mm 3 m/s 772 mmHg 86%
    07:00 0°C° 0 mm 3 m/s 772 mmHg 86%
    08:00 -1°C° 0 mm 3 m/s 773 mmHg 84%
    09:00 -1°C° 0 mm 3 m/s 773 mmHg 82%
    10:00 0°C° 0 mm 3 m/s 773 mmHg 80%
    11:00 0°C° 0 mm 3 m/s 773 mmHg 78%
    12:00 0°C° 0 mm 3 m/s 773 mmHg 78%
    13:00 0°C° 0 mm 3 m/s 774 mmHg 77%
    14:00 0°C° 0 mm 3 m/s 774 mmHg 76%
    15:00 -1°C° 0 mm 2 m/s 774 mmHg 78%
    16:00 -1°C° 0 mm 2 m/s 774 mmHg 81%
    17:00 -2°C° 0 mm 2 m/s 774 mmHg 84%
    18:00 -2°C° 0 mm 2 m/s 773 mmHg 83%
    19:00 -2°C° 0 mm 2 m/s 773 mmHg 83%
    20:00 -2°C° 0 mm 2 m/s 773 mmHg 83%
    21:00 -3°C° 0 mm 2 m/s 773 mmHg 83%
    22:00 -1°C° 0 mm 1 m/s 773 mmHg 83%
    23:00 -1°C° 0 mm 1 m/s 773 mmHg 82%

    Demain, 20 Novembre, Mardi

    Heure Température Précipitation Vent Pression Humidité
    00:00 -1°C° 0 mm 1 m/s 773 mmHg 82%
    01:00 -1°C° 0 mm 1 m/s 773 mmHg 81%
    02:00 -1°C° 0 mm 1 m/s 773 mmHg 80%
    03:00 -2°C° 0 mm 0 m/s 773 mmHg 79%
    04:00 -2°C° 0 mm 0 m/s 772 mmHg 78%
    05:00 -2°C° 0 mm 0 m/s 772 mmHg 77%
    06:00 -2°C° 0 mm 0 m/s 771 mmHg 77%
    07:00 -2°C° 0 mm 0 m/s 771 mmHg 76%
    08:00 -2°C° 0 mm 0 m/s 771 mmHg 75%
    09:00 0°C° 0 mm 1 m/s 771 mmHg 71%
    10:00 0°C° 0 mm 1 m/s 771 mmHg 68%
    11:00 +1°C° 0 mm 1 m/s 770 mmHg 64%
    12:00 +1°C° 0 mm 1 m/s 770 mmHg 65%
    13:00 +2°C° 0 mm 1 m/s 770 mmHg 65%
    14:00 +2°C° 0 mm 1 m/s 769 mmHg 65%
    15:00 -1°C° 0 mm 2 m/s 769 mmHg 70%
    16:00 -1°C° 0 mm 2 m/s 769 mmHg 75%
    17:00 -2°C° 0 mm 2 m/s 769 mmHg 80%
    18:00 -2°C° 0 mm 2 m/s 768 mmHg 82%
    19:00 -2°C° 0 mm 2 m/s 768 mmHg 84%
    20:00 -2°C° 0 mm 2 m/s 768 mmHg 86%
    21:00 -1°C° 0 mm 2 m/s 768 mmHg 87%
    22:00 -1°C° 0 mm 2 m/s 768 mmHg 89%
    23:00 -1°C° 0 mm 2 m/s 768 mmHg 90%

    Après-demain, 21 Novembre, Mercredi

    Heure Température Précipitation Vent Pression Humidité
    00:00 -1°C° 0 mm 2 m/s 769 mmHg 90%
    01:00 -1°C° 0 mm 2 m/s 769 mmHg 90%
    02:00 -1°C° 0 mm 2 m/s 769 mmHg 90%
    03:00 +1°C° 0 mm 2 m/s 769 mmHg 90%
    04:00 +1°C° 0 mm 2 m/s 769 mmHg 90%
    05:00 +1°C° 0 mm 2 m/s 769 mmHg 89%
    06:00 +1°C° 0 mm 2 m/s 769 mmHg 90%
    07:00 -1°C° 0 mm 2 m/s 770 mmHg 90%
    08:00 -1°C° 0 mm 2 m/s 770 mmHg 90%
    09:00 -1°C° 0 mm 2 m/s 770 mmHg 87%
    10:00 +1°C° 0 mm 2 m/s 770 mmHg 85%
    11:00 +1°C° 0 mm 2 m/s 770 mmHg 82%
    12:00 +1°C° 0 mm 2 m/s 770 mmHg 82%
    13:00 +1°C° 0 mm 2 m/s 770 mmHg 82%
    14:00 +1°C° 0 mm 2 m/s 770 mmHg 82%
    15:00 -1°C° 0 mm 2 m/s 770 mmHg 84%
    16:00 -1°C° 0 mm 2 m/s 770 mmHg 87%
    17:00 -2°C° 0 mm 2 m/s 770 mmHg 90%
    18:00 -2°C° 0 mm 2 m/s 770 mmHg 90%
    19:00 -2°C° 0 mm 2 m/s 770 mmHg 89%
    20:00 -2°C° 0 mm 2 m/s 770 mmHg 89%
    21:00 -2°C° 0 mm 2 m/s 770 mmHg 89%
    22:00 -2°C° 0 mm 2 m/s 769 mmHg 89%
    23:00 -2°C° 0 mm 2 m/s 769 mmHg 89%

    22 Novembre, Jeudi

    Heure Température Précipitation Vent Pression Humidité
    00:00 -2°C° 0 mm 3 m/s 769 mmHg 88%
    01:00 -2°C° 0 mm 3 m/s 769 mmHg 88%
    02:00 -2°C° 0 mm 3 m/s 768 mmHg 87%
    03:00 -2°C° 0 mm 3 m/s 768 mmHg 86%
    04:00 -3°C° 0 mm 4 m/s 768 mmHg 84%
    05:00 -3°C° 0 mm 4 m/s 767 mmHg 83%
    06:00 -3°C° 0 mm 4 m/s 767 mmHg 82%
    07:00 -3°C° 0 mm 4 m/s 767 mmHg 81%
    08:00 -3°C° 0 mm 4 m/s 766 mmHg 80%
    09:00 -2°C° 0 mm 5 m/s 766 mmHg 78%
    10:00 -2°C° 0 mm 5 m/s 766 mmHg 77%
    11:00 -1°C° 0 mm 5 m/s 766 mmHg 75%
    12:00 -1°C° 0 mm 5 m/s 766 mmHg 77%
    13:00 0°C° 0 mm 5 m/s 765 mmHg 78%
    14:00 0°C° 0 mm 5 m/s 765 mmHg 79%
    15:00 -1°C° 0 mm 4 m/s 765 mmHg 82%
    16:00 -1°C° 0 mm 4 m/s 765 mmHg 84%
    17:00 -1°C° 0 mm 4 m/s 765 mmHg 87%
    18:00 0°C° 0 mm 3 m/s 766 mmHg 89%
    19:00 -1°C° 0 mm 3 m/s 766 mmHg 91%
    20:00 -1°C° 0 mm 3 m/s 766 mmHg 93%
    21:00 -1°C° 0 mm 2 m/s 766 mmHg 94%
    22:00 -1°C° 0 mm 2 m/s 766 mmHg 95%
    23:00 -2°C° 0 mm 2 m/s 767 mmHg 95%

    23 Novembre, Vendredi

    Heure Température Précipitation Vent Pression Humidité
    00:00 -2°C° 0 mm 2 m/s 767 mmHg 95%
    01:00 -2°C° 0 mm 2 m/s 767 mmHg 95%
    02:00 0°C° 0 mm 1 m/s 767 mmHg 96%
    03:00 0°C° 0 mm 1 m/s 767 mmHg 96%
    04:00 0°C° 0 mm 1 m/s 767 mmHg 96%
    05:00 0°C° 0 mm 1 m/s 767 mmHg 96%
    06:00 -1°C° 0 mm 2 m/s 767 mmHg 95%
    07:00 -1°C° 0 mm 2 m/s 767 mmHg 95%
    08:00 -1°C° 0 mm 2 m/s 767 mmHg 95%
    09:00 -1°C° 0 mm 2 m/s 767 mmHg 93%
    10:00 -1°C° 0 mm 3 m/s 767 mmHg 91%
    11:00 0°C° 0 mm 3 m/s 767 mmHg 89%
    12:00 0°C° 0 mm 3 m/s 767 mmHg 88%
    13:00 -1°C° 0 mm 4 m/s 766 mmHg 87%
    14:00 0°C° 0 mm 4 m/s 766 mmHg 86%
    15:00 0°C° 0 mm 4 m/s 766 mmHg 86%
    16:00 -1°C° 0 mm 5 m/s 766 mmHg 85%
    17:00 -1°C° 0 mm 5 m/s 765 mmHg 84%
    18:00 -1°C° 0 mm 5 m/s 765 mmHg 85%
    19:00 -1°C° 0 mm 5 m/s 765 mmHg 85%
    20:00 -1°C° 0 mm 5 m/s 764 mmHg 85%
    21:00 -1°C° 0 mm 5 m/s 764 mmHg 85%
    22:00 -1°C° 0 mm 5 m/s 764 mmHg 85%
    23:00 -1°C° 0 mm 5 m/s 763 mmHg 85%

    24 Novembre, Samedi

    Heure Température Précipitation Vent Pression Humidité
    00:00 -1°C° 0 mm 5 m/s 763 mmHg 85%
    01:00 -1°C° 0 mm 5 m/s 763 mmHg 85%
    02:00 -1°C° 0 mm 5 m/s 762 mmHg 85%
    03:00 -1°C° 0 mm 4 m/s 762 mmHg 85%
    04:00 -1°C° 0 mm 4 m/s 762 mmHg 85%
    05:00 -1°C° 0 mm 4 m/s 761 mmHg 86%
    06:00 -1°C° 0 mm 4 m/s 761 mmHg 86%
    07:00 -1°C° 0 mm 4 m/s 761 mmHg 86%
    08:00 -1°C° 0 mm 4 m/s 761 mmHg 86%
    09:00 -1°C° 0 mm 4 m/s 761 mmHg 86%
    10:00 -1°C° 0 mm 4 m/s 760 mmHg 85%
    11:00 -1°C° 0 mm 4 m/s 760 mmHg 85%
    12:00 0°C° 0 mm 3 m/s 760 mmHg 85%
    13:00 0°C° 0 mm 3 m/s 760 mmHg 85%
    14:00 0°C° 0 mm 3 m/s 760 mmHg 85%
    15:00 0°C° 0 mm 3 m/s 760 mmHg 86%
    16:00 0°C° 0 mm 3 m/s 760 mmHg 87%
    17:00 0°C° 0 mm 3 m/s 759 mmHg 88%
    18:00 0°C° 0 mm 3 m/s 759 mmHg 88%
    19:00 +1°C° 0 mm 2 m/s 759 mmHg 89%
    20:00 +1°C° 0 mm 2 m/s 759 mmHg 90%
    21:00 +1°C° 0 mm 2 m/s 760 mmHg 90%
    22:00 +1°C° 0 mm 2 m/s 760 mmHg 91%
    23:00 +1°C° 0 mm 2 m/s 760 mmHg 91%
    Voir plus